Tracking 19908 objects as of 18-Oct-2019
HD Live streaming from Space Station
objects crossing your sky now

IRIDIUM 33 DEB

Track IRIDIUM 33 DEB now!
10-day predictions


NORAD ID: 38473
Int'l Code: 1997-051AAA
Perigee: 664.0 km
Apogee: 686.9 km
Inclination: 86.3 °
Period: 98.1 minutes
Semi major axis: 7046 km
RCS: 0.0064 m2 (small)
Launch date: September 14, 1997
Source: United States (US)
Launch site: TYURATAM MISSILE AND SPACE COMPLEX (TTMTR)

Note: This is SATELLITE DEBRIS
aabbcc
Your satellite tracking list
Your tracking list is empty




NASA's NSSDC Master Catalog

Two Line Element Set (TLE):
1 38473U 97051AAA 13089.56987853 +.00027079 +00000-0 +47271-2 0  9997
2 38473 086.3156 183.9508 0016263 201.6908 158.3619 14.67739492167508
Source of the keplerian elements: AFSPC